THAICOM 8 (41552 NORAD) Tracking and Keplerian Element Data

This shows tracking and keplerian element data for the satellite.

Feedback or suggestion? Click here.




ElementValue
Catalog41552
NameTHAICOM 8
Epoch Orbit931
Epoch Day350.54543346
Epoch Year2018
RAAN56.7386
Inclination0.077
Eccentricity0.0002237
Argument of Perigee250.6888
Mean Anonmoly52.5681
Mean Motion1.00270981
Decay Rate-1.07E-06
L11 41552U 16031A 18350.54543346 -.00000107 00000-0 00000+0 0 9997
L22 41552 0.0770 56.7386 0002237 250.6888 52.5681 1.00270981 9317

Live tracking and technical data element details for THAICOM 8 (NORAD 41552). THAICOM 8 can be tracked NOW for your location showing map with azimuth and elevation plus other details from your city location.

Track the satellite on the map from your city or location and see movement details for azimuth, elevation, latitude, longitude, range, height, and movement on the map or in text.







IsCatalogInMostPopularTable: catalog: 41552, numindb: 98
Update: records affected: 1



GetName: 41552 THAICOM 8

Hit Count: updated at: Tue, 18 Dec 2018 22:08:09 GMT